Simultaneous Nadir Overpasses (SNOs) Predictions

Prediction of SNOs between METOP-B and TERRA Satellite Orbit:

Table of predicted SNOs for the next 14.0 days since TLE Epoch: 5/14/2022
Index Date (METOP-B) Time (METOP-B) Lat,Lon (METOP-B) SZA (METOP-B ) Date (TERRA) Time (TERRA) Lat,Lon (TERRA) SZA (TERRA ) Distance(km) Time Diff (sec)
1 05/14/2022 07:38:06 -81.17, -73.47 115.13 05/14/2022 07:38:53 -81.17, -73.40 115.11 1.20 47
2 05/14/2022 08:28:45 81.20, 94.62 64.96 05/14/2022 08:28:18 81.20, 94.69 64.96 1.50 27
3 05/17/2022 03:12:26 -81.18, -6.79 115.75 05/17/2022 03:13:01 -81.18, -6.84 115.74 0.86 35
4 05/17/2022 04:03:06 81.19, 160.89 64.29 05/17/2022 04:02:27 81.19, 160.86 64.26 0.86 39
5 05/19/2022 22:46:47 -81.18, 59.46 116.39 05/19/2022 22:47:09 -81.18, 59.60 116.36 2.34 22
6 05/19/2022 23:37:26 81.20,-132.52 63.70 05/19/2022 23:36:34 81.21,-132.37 63.70 2.74 52
7 05/22/2022 18:21:06 -81.18, 126.04 116.94 05/22/2022 18:21:16 -81.17, 125.90 116.95 2.55 10
8 05/22/2022 19:11:45 81.20, -65.98 63.15 05/22/2022 19:10:41 81.20, -66.09 63.10 2.05 64
9 05/25/2022 13:04:46 81.17, 24.87 62.52 05/25/2022 13:05:56 81.18, 24.81 62.54 1.15 70



Historial Predications of SNOs between METOP-B and TERRA
